Weather History for EGXG - November, 2012

Change the Weather History Date:

Tuesday, November 20, 2012

  Actual Average Record
Temperature  
Mean Temperature 54 °F -  
Max Temperature 58 °F - - ()
Min Temperature 50 °F - - ()
Degree Days  
Heating Degree Days 11    
Growing Degree Days 4 (Base 50)    
Moisture  
Dew Point 49 °F    
Average Humidity 85    
Maximum Humidity 94    
Minimum Humidity 62    
Precipitation  
Precipitation 0.03 in - - ()
Sea Level Pressure  
Sea Level Pressure 29.62 in    
Wind  
Wind Speed 11 mph ()    
Max Wind Speed 20 mph    
Max Gust Speed -    
Visibility 7.2 miles    
Events Rain    
T = Trace of Precipitation, MM = Missing Value Source: Averaged Metar Reports

Daily Weather History Graph

Daily Weather History Graph

Search for Another Location

Airport or City:

Trip Planner

Search our weather history database for the weather conditions in past years. The results will help you decide how hot, cold, wet, or windy it might be!

Date:

Astronomy

Nov. 20, 2012 Rise Set
Actual Time 7:41 AM GMT 3:58 PM GMT
Civil Twilight 7:01 AM GMT 4:39 PM GMT
Nautical Twilight 6:17 AM GMT 5:22 PM GMT
Astronomical Twilight 5:35 AM GMT 6:04 PM GMT
Moon 12:39 PM GMT (11/20) 11:49 PM GMT (11/20)
Length of Visible Light 9h 37m
Length of Day
8h 17m
Waxing Crescent, 49% of the Moon is Illuminated
Nov 20
Waxing Crescent
Nov 20
First Quarter
Nov 28
Full
Dec 6
Last Quarter
Dec 13
New

Hourly Weather History & Observations

Time (GMT) Temp. Dew Point Humidity Pressure Visibility Wind Dir Wind Speed Gust Speed Precip Events Conditions
12:50 AM 50.0 °F 48.2 °F 94% 29.65 in 6.2 mi SSE 8.1 mph - N/A   Mostly Cloudy
1:50 AM 50.0 °F 48.2 °F 94% 29.68 in 6.2 mi SSE 8.1 mph - N/A   Mostly Cloudy
2:50 AM 50 °F 48 °F 90% 29.67 in 7 mi SSE 9.2 mph - -   Scattered Clouds
2:50 AM 50.0 °F 48.2 °F 94% 29.65 in 6.2 mi SSE 9.2 mph - N/A   Scattered Clouds
3:50 AM 50.0 °F 48.2 °F 94% 29.62 in 6.2 mi South 8.1 mph - N/A   Mostly Cloudy
4:50 AM 51.8 °F 50.0 °F 94% 29.62 in 6.2 mi SSE 11.5 mph - N/A   Mostly Cloudy
5:50 AM 52 °F 50 °F 89% 29.63 in 10 mi SSE 11.5 mph - -  
5:50 AM 51.8 °F 50.0 °F 94% 29.62 in 6.2 mi SSE 11.5 mph - N/A   Scattered Clouds
7:50 AM 51.8 °F 50.0 °F 94% 29.59 in 6.2 mi South 16.1 mph - N/A Rain Light Rain Showers
8:50 AM 53 °F 50 °F 87% 29.60 in 13 mi SSE 15.0 mph - - Rain Rain
8:50 AM 53.6 °F 50.0 °F 88% 29.59 in 6.2 mi SSE 15.0 mph - N/A   Mostly Cloudy
9:50 AM 53.6 °F 51.8 °F 94% 29.56 in 6.2 mi South 16.1 mph - N/A   Mostly Cloudy
10:50 AM 55.4 °F 51.8 °F 88% 29.56 in 6.2 mi South 15.0 mph - N/A   Overcast
11:50 AM 55 °F 53 °F 90% 29.55 in 11 mi South 18.4 mph - -   Mostly Cloudy
11:50 AM 55.4 °F 53.6 °F 94% 29.53 in 6.2 mi South 18.4 mph - N/A   Mostly Cloudy
12:50 PM 57.2 °F 53.6 °F 88% 29.53 in 6.2 mi South 17.3 mph - N/A Rain Light Rain
1:50 PM 59.0 °F 53.6 °F 82% 29.53 in 6.2 mi South 18.4 mph - N/A   Mostly Cloudy
2:50 PM 58 °F 53 °F 78% 29.55 in 34 mi South 19.6 mph - - Rain Rain
2:50 PM 57.2 °F 53.6 °F 88% 29.53 in 6.2 mi South 19.6 mph - N/A   Mostly Cloudy
3:50 PM 57.2 °F 53.6 °F 88% 29.56 in 6.2 mi South 13.8 mph - N/A   Mostly Cloudy
4:50 PM 53.6 °F 50.0 °F 88% 29.59 in 6.2 mi WSW 11.5 mph - N/A Rain Light Rain Showers
5:50 PM 54 °F 49 °F 77% 29.64 in 34 mi SSW 9.2 mph - - Rain Rain
5:50 PM 53.6 °F 48.2 °F 82% 29.62 in 6.2 mi SSW 9.2 mph - N/A   Scattered Clouds
6:50 PM 53.6 °F 46.4 °F 77% 29.65 in 6.2 mi SW 10.4 mph - N/A   Mostly Cloudy
7:50 PM 53.6 °F 44.6 °F 72% 29.68 in 6.2 mi SSW 12.7 mph - N/A   Mostly Cloudy
8:50 PM 53 °F 44 °F 62% 29.70 in 28 mi SSW 10.4 mph - -   Overcast
8:50 PM 53.6 °F 44.6 °F 72% 29.68 in 6.2 mi SSW 10.4 mph - N/A   Overcast
9:50 PM 51.8 °F 44.6 °F 76% 29.71 in 6.2 mi SSW 11.5 mph - N/A   Overcast
10:50 PM 51.8 °F 42.8 °F 71% 29.71 in 6.2 mi WSW 5.8 mph - N/A   Overcast
11:50 PM 50 °F 44 °F 73% 29.73 in 18 mi SSW 6.9 mph - -   Overcast
11:50 PM 50.0 °F 44.6 °F 82% 29.71 in 6.2 mi SSW 6.9 mph - N/A   Overcast